1499364001.18,44109,18.44,74264.8,1.59,0.91,0.87,0,*7F
1499364002.43,44110,18.44,74268.8,1.59,0.87,0.87,0,*70
1499364003.63,44111,18.44,74264.3,1.61,0.67,0.67,0,*7A
1499364004.86,44112,18.44,74266.0,1.61,0.55,0.55,0,*79
1499364006.08,44113,18.44,74264.0,1.61,0.63,0.55,0,*7D
1499364007.3,44114,18.44,74260.8,1.61,0.63,0.55,0,*7A
1499364008.52,44115,18.44,74262.8,1.61,0.55,0.55,0,*7E
1499364009.71,44116,18.44,74264.3,1.61,0.51,0.43,0,*7E
1499364010.96,44117,18.44,74270.8,1.59,0.59,0.59,0,*77
1499364012.2,44118,18.44,74260.8,1.59,0.71,0.63,0,*7B
1499364013.45,44119,18.44,74264.3,1.59,0.59,0.59,0,*79
1499364014.66,44120,18.44,74264.5,1.61,0.75,0.75,0,*78
1499364015.88,44121,18.44,74262.8,1.61,0.75,0.75,0,*79
1499364017.1,44122,18.44,74262.5,1.61,0.79,0.79,0,*7A
1499364018.32,44123,18.44,74262.3,1.61,0.79,0.87,0,*7A
1499364019.57,44124,18.44,74262.8,1.59,0.87,0.83,0,*73
1499364020.83,44125,18.44,74270.5,1.59,0.87,0.83,0,*72
1499364022.05,44126,18.44,74264.8,1.61,0.79,0.75,0,*72
1499364023.27,44127,18.44,74260.3,1.61,0.79,0.75,0,*73
1499364024.49,44128,18.44,74262.5,1.61,0.87,0.79,0,*71
1499364025.72,44129,18.44,74260.3,1.61,0.87,0.87,0,*71
1499364026.94,44130,18.44,74266.0,1.65,0.95,0.91,0,*79
1499364028.15,44131,18.44,74264.0,1.65,0.79,0.79,0,*7C
1499364029.36,44132,18.44,74260.0,1.65,0.71,0.71,0,*7F
1499364030.57,44133,18.44,74270.3,1.61,0.63,0.63,0,*7A
1499364031.77,44134,18.44,74270.0,1.65,0.67,0.67,0,*79
1499364032.99,44135,18.44,74262.3,1.65,0.59,0.59,0,*78
1499364034.18,44136,18.44,74266.3,1.61,0.51,0.43,0,*7C
1499364035.34,44137,18.44,74266.5,1.61,0.43,0.43,0,*7E
1499364036.54,44138,18.44,74278.8,1.61,0.51,0.43,0,*72
1499364037.74,44139,18.44,74276.0,1.65,0.37,0.33,0,*70
1499364038.95,44140,18.44,74264.3,1.65,0.25,0.21,0,*7E
1499364040.16,44141,18.44,74260.3,1.61,0.33,0.29,0,*74
1499364041.38,44142,18.44,74262.0,1.61,0.21,0.17,0,*79
1499364042.59,44143,18.44,74262.5,1.65,0.25,0.25,0,*79
1499364043.8,44144,18.44,74258.0,1.61,0.41,0.41,0,*7A
1499364045.02,44145,18.44,74254.5,1.61,0.51,0.51,0,*7B
1499364046.27,44146,18.44,74254.0,1.59,0.51,0.51,0,*73
1499364047.51,44147,18.44,74254.8,1.59,0.51,0.51,0,*72
1499364048.76,44148,18.44,74258.5,1.59,0.51,0.51,0,*7D
1499364050.0,44149,18.44,74252.5,1.59,0.51,0.51,0,*7C
1499364051.25,44150,18.44,74252.3,1.59,0.59,0.47,0,*7B
1499364052.49,44151,18.44,74254.8,1.59,0.51,0.47,0,*72
1499364053.74,44152,18.44,74256.3,1.59,0.51,0.47,0,*71
1499364054.98,44153,18.44,74262.8,1.59,0.47,0.41,0,*71
1499364056.23,44154,18.44,74250.3,1.59,0.47,0.41,0,*76
1499364057.41,44155,18.44,74240.5,1.61,0.43,0.41,0,*78
1499364058.62,44156,18.44,74246.8,1.61,0.41,0.41,0,*79
1499364059.82,44157,18.44,74252.8,1.61,0.51,0.43,0,*7B
1499364060.98,44158,18.44,74250.8,1.61,0.09,0.09,0,*77
1499364062.2,44159,18.44,74250.0,1.61,0.21,0.29,0,*7E
1499364063.44,44160,18.44,74256.5,1.59,0.17,0.29,0,*7A
1499364064.68,44161,18.44,74250.5,1.59,0.37,0.37,0,*76
1499364065.92,44162,18.44,74250.3,1.59,0.29,0.29,0,*75
1499364067.16,44163,18.44,74252.8,1.59,0.41,0.37,0,*75
1499364068.38,44164,18.44,74258.0,1.57,0.41,0.47,0,*7B
1499364069.59,44165,18.44,74258.5,1.57,0.29,0.41,0,*72
1499364070.8,44166,18.44,74254.0,1.57,0.47,0.47,0,*7F
1499364072.05,44167,18.44,74262.5,1.59,0.59,0.59,0,*70
1499364073.29,44168,18.44,74262.8,1.59,0.51,0.63,0,*7E
1499364074.53,44169,18.44,74266.8,1.59,0.59,0.59,0,*7E
1499364075.75,44170,18.44,74264.8,1.57,0.75,0.71,0,*7C
1499364076.99,44171,18.44,74260.8,1.59,0.71,0.71,0,*77
1499364078.23,44172,18.44,74260.8,1.59,0.75,0.83,0,*7D
1499364079.48,44173,18.44,74258.8,1.59,0.83,0.83,0,*75
1499364080.73,44174,18.44,74256.3,1.59,0.87,0.87,0,*72
1499364081.98,44175,18.44,74258.0,1.59,0.87,0.87,0,*73
1499364083.21,44176,18.44,74268.3,1.59,0.97,0.91,0,*76
1499364084.42,44177,18.44,74264.3,1.61,1.05,1.13,0,*7D
1499364085.65,44178,18.44,74258.8,1.65,1.09,1.09,0,*71
1499364086.87,44179,18.44,74260.8,1.65,0.91,0.83,0,*73
1499364088.09,44180,18.44,74258.0,1.61,0.79,0.75,0,*7E
1499364089.32,44181,18.44,74258.3,1.61,0.91,0.91,0,*73
1499364090.53,44182,18.44,74262.5,1.65,0.95,0.95,0,*74
1499364091.74,44183,18.44,74264.0,1.61,0.95,0.95,0,*71
1499364092.97,44184,18.44,74268.0,1.61,0.91,0.91,0,*76
1499364094.18,44185,18.44,74268.5,1.65,0.95,0.95,0,*73
1499364095.4,44186,18.44,74264.5,1.61,0.95,0.87,0,*77
1499364096.62,44187,18.44,74266.0,1.65,0.95,0.91,0,*75
1499364097.84,44188,18.44,74258.5,1.65,0.91,0.91,0,*7E
1499364099.07,44189,18.44,74254.5,1.65,0.91,0.91,0,*7F
1499364100.23,44190,18.44,74248.8,1.65,0.97,0.97,0,*77
1499364101.4,44191,18.44,74250.3,1.65,1.05,0.97,0,*4C
1499364102.63,44192,18.44,74242.8,1.65,1.09,1.09,0,*75
1499364103.88,44193,18.44,74242.3,1.67,1.17,1.09,0,*79
1499364105.14,44194,18.44,74264.8,1.67,1.09,1.09,0,*71
1499364106.34,44195,18.44,74266.8,1.69,1.09,1.01,0,*76
1499364107.55,44196,18.44,74260.5,1.67,0.95,0.97,0,*71
1499364108.72,44197,18.44,74260.5,1.69,0.97,0.97,0,*7C
1499364109.96,44198,18.44,74262.5,1.67,0.91,0.95,0,*79
1499364111.18,44199,18.44,74258.5,1.69,0.83,0.83,0,*72
1499364112.43,44200,18.44,74258.3,1.67,0.79,0.91,0,*79
1499364113.66,44201,18.44,74258.5,1.67,0.71,0.71,0,*7E
1499364114.9,44202,18.44,74260.3,1.67,0.79,0.79,0,*7D
1499364116.13,44203,18.44,74258.3,1.67,0.97,0.91,0,*7A
1499364117.35,44204,18.44,74266.8,1.67,1.05,1.13,0,*7C
1499364118.58,44205,18.44,74266.8,1.67,1.09,0.97,0,*4C
1499364119.78,44206,18.44,74266.0,1.69,1.09,1.01,0,*7F
1499364120.95,44207,18.44,74260.3,1.69,1.01,1.01,0,*76
1499364122.19,44208,18.44,74252.8,1.67,0.95,0.95,0,*77
1499364123.4,44209,18.44,74254.8,1.69,1.13,1.01,0,*7B
1499364124.59,44210,18.44,74256.8,1.69,1.09,0.97,0,*46
1499364125.8,44211,18.44,74260.5,1.69,1.09,1.01,0,*79
1499364126.97,44212,18.44,74254.3,1.69,0.97,1.01,0,*4C
1499364128.17,44213,18.44,74258.3,1.71,0.97,1.01,0,*44
1499364129.37,44214,18.44,74260.3,1.71,1.01,1.01,0,*7D
1499364130.56,44215,18.44,74258.5,1.71,0.97,0.97,0,*7C
1499364131.8,44216,18.44,74262.5,1.71,0.83,0.95,0,*78
1499364133.06,44217,18.44,74260.0,1.73,1.13,1.17,0,*78
1499364134.26,44218,18.44,74254.8,1.71,1.01,0.97,0,*4F
1499364135.48,44219,18.44,74252.8,1.71,0.97,0.95,0,*72
1499364136.67,44220,18.44,74260.0,1.73,0.97,0.97,0,*78
1499364137.9,44221,18.44,74256.5,1.71,1.01,1.09,0,*73
1499364139.16,44222,18.44,74256.8,1.71,1.13,1.09,0,*73
1499364140.39,44223,18.44,74262.8,1.73,1.13,1.05,0,*7C
1499364141.65,44224,18.44,74262.5,1.73,1.13,1.13,0,*7C
1499364142.89,44225,18.44,74266.5,1.73,1.13,1.05,0,*7A
1499364144.12,44226,18.44,74260.0,1.73,1.17,1.05,0,*7D
1499364145.35,44227,18.44,74270.3,1.73,1.17,1.05,0,*7C
1499364146.6,44228,18.44,74266.5,1.73,1.17,1.13,0,*74
1499364147.84,44229,18.44,74268.8,1.75,1.17,1.13,0,*73
1499364149.01,44230,18.44,74270.5,1.75,1.01,0.97,0,*41
1499364150.24,44231,18.44,74266.5,1.75,0.91,0.79,0,*78
1499364151.46,44232,18.44,74260.5,1.73,0.97,0.67,0,*74
1499364152.69,44233,18.44,74256.3,1.73,0.75,0.41,0,*7D
1499364153.93,44234,18.44,74256.5,1.73,0.55,0.13,0,*7F
1499364155.15,44235,18.44,74262.3,1.73,0.41,-0.07,0,*63
1499364156.36,44236,18.44,74264.3,1.75,0.33,0.17,0,*7F
1499364157.57,44237,18.44,74260.0,1.75,0.33,0.29,0,*73
1499364158.76,44238,18.44,74258.8,1.75,0.13,0.01,0,*44
1499364159.94,44239,18.44,74268.8,1.75,-0.07,-0.33,0,*41
1499364161.14,44240,18.44,74258.3,1.75,0.17,-0.19,0,*5B
1499364162.35,44241,18.44,74252.0,1.73,0.29,-0.07,0,*6E
1499364163.59,44242,18.44,74258.0,1.71,0.37,0.13,0,*78
1499364164.79,44243,18.44,74260.0,1.73,0.43,0.41,0,*7F
1499364166.03,44244,18.44,74272.0,1.73,0.63,0.55,0,*7F
1499364167.25,44245,18.44,74268.8,1.75,0.67,0.75,0,*7E
1499364168.46,44246,18.44,74276.0,1.75,0.75,0.75,0,*7E
1499364169.67,44247,18.44,74272.3,1.75,0.67,0.67,0,*7F
1499364170.89,44248,18.44,74256.8,1.75,0.55,0.33,0,*70
1499364172.08,44249,18.44,74264.5,1.75,0.33,0.05,0,*44
1499364173.28,44250,18.44,74274.3,1.75,0.13,-0.41,0,*53
1499364174.47,44251,18.44,74270.0,1.75,-0.73,-0.61,0,*7B
1499364175.68,44252,18.44,74264.0,1.75,-1.05,-0.29,0,*44
1499364176.86,44253,18.44,74260.8,1.75,-0.69,0.01,0,*69
1499364178.03,44254,18.44,74258.5,1.75,-0.61,0.01,0,*66
1499364179.22,44255,18.44,74250.0,1.75,-0.53,0.17,0,*51
1499364180.45,44256,18.44,74240.8,1.75,-0.23,0.51,0,*57
1499364181.67,44257,18.44,74244.3,1.75,0.17,0.55,0,*78
1499364182.91,44258,18.44,74236.8,1.77,0.33,0.67,0,*72
1499364184.13,44259,18.44,74244.3,1.75,0.51,0.55,0,*74
1499364185.38,44260,18.44,74244.5,1.77,0.55,0.71,0,*7E
1499364186.59,44261,18.44,74244.0,1.79,0.67,0.67,0,*77
1499364187.8,44262,18.44,74246.3,1.75,0.75,0.67,0,*7B
1499364189.04,44263,18.44,74256.5,1.77,0.59,0.59,0,*7B
1499364190.26,44264,18.44,74270.0,1.77,0.43,0.37,0,*7F
1499364191.5,44265,18.44,74268.3,1.77,0.17,0.17,0,*7D
1499364192.72,44266,18.44,74266.3,1.77,-0.19,0.17,0,*5D
1499364193.92,44267,18.44,74266.5,1.75,-0.19,0.13,0,*5A
1499364195.14,44268,18.44,74266.5,1.77,-0.41,-0.03,0,*46
1499364196.32,44269,18.44,74264.8,1.75,-0.81,-0.29,0,*71
1499364197.5,44270,18.44,74250.8,1.75,-0.77,0.05,0,*63
1499364198.72,44271,18.44,74248.8,1.77,-0.07,0.33,0,*62
1499364199.93,44272,18.44,74250.0,1.75,0.29,0.41,0,*77
1499364201.09,44273,18.44,74246.8,1.75,0.43,0.43,0,*78
1499364202.32,44274,18.44,74250.8,1.75,0.55,0.51,0,*7B
1499364203.56,44275,18.44,74256.0,1.77,0.67,0.47,0,*7E
1499364204.81,44276,18.44,74254.3,1.77,0.59,0.37,0,*77
1499364206.05,44277,18.44,74256.8,1.77,0.47,0.33,0,*7D
1499364207.29,44278,18.44,74264.3,1.77,0.37,0.21,0,*76
1499364208.51,44279,18.44,74268.5,1.77,0.05,0.17,0,*43
1499364209.73,44280,18.44,74270.8,1.77,-0.03,0.25,0,*6F
1499364210.95,44281,18.44,74274.3,1.77,0.09,0.33,0,*4E
1499364212.16,44282,18.44,74280.3,1.79,0.17,0.21,0,*7F
1499364213.38,44283,18.44,74278.5,1.79,-0.19,-0.27,0,*76
1499364214.57,44284,18.44,74262.3,1.79,-0.19,-0.41,0,*71
1499364215.76,44285,18.44,74258.3,1.79,-0.19,-0.41,0,*70
1499364216.98,44286,18.44,74258.0,1.77,-0.41,-0.37,0,*71
1499364218.2,44287,18.44,74266.8,1.77,-0.41,-0.15,0,*70
1499364219.38,44288,18.44,74270.8,1.79,-0.41,-0.07,0,*42
1499364220.59,44289,18.44,74272.5,1.79,-0.37,0.21,0,*5B
1499364221.79,44290,18.44,74256.8,1.79,-0.29,0.21,0,*5C
1499364222.96,44291,18.44,74246.8,1.79,0.09,0.43,0,*46
1499364224.17,44292,18.44,74242.3,1.79,0.37,0.71,0,*79
1499364225.41,44293,18.44,74248.5,1.81,0.71,0.83,0,*70
1499364226.64,44294,18.44,74252.3,1.79,0.91,0.95,0,*79
1499364227.84,44295,18.44,74252.5,1.79,0.95,1.01,0,*40
1499364229.02,44296,18.44,74262.5,1.79,1.01,1.01,0,*7F
1499364230.2,44297,18.44,74268.3,1.79,1.01,1.01,0,*7E
1499364231.38,44298,18.44,74274.3,1.79,1.05,1.01,0,*75
1499364232.56,44299,18.44,74278.3,1.79,1.01,1.01,0,*70
1499364233.76,44300,18.44,74276.8,1.81,1.05,1.05,0,*76
1499364234.94,44301,18.44,74282.3,1.79,1.01,1.01,0,*70
1499364236.14,44302,18.44,74282.5,1.79,1.01,0.95,0,*4F
1499364237.39,44303,18.44,74276.0,1.81,0.87,0.75,0,*78
1499364238.61,44304,18.44,74272.5,1.79,0.83,0.83,0,*75
1499364239.82,44305,18.44,74268.0,1.79,0.75,0.71,0,*70
1499364241.06,44306,18.44,74266.3,1.81,0.75,0.75,0,*70
1499364242.28,44307,18.44,74272.8,1.79,0.67,0.55,0,*77
1499364243.51,44308,18.44,74266.5,1.79,0.55,0.47,0,*7A
1499364244.73,44309,18.44,74266.3,1.79,0.55,0.37,0,*7C
1499364245.92,44310,18.44,74258.5,1.79,0.43,0.37,0,*73
1499364247.11,44311,18.44,74258.8,1.79,0.43,0.47,0,*75
1499364248.33,44312,18.44,74246.3,1.79,0.47,0.59,0,*7D
1499364249.56,44313,18.44,74256.0,1.79,0.47,0.47,0,*73
1499364250.77,44314,18.44,74270.8,1.79,0.67,0.59,0,*79
1499364252.01,44315,18.44,74270.8,1.81,0.51,0.41,0,*73
1499364253.22,44316,18.44,74264.5,1.79,0.25,0.17,0,*77
1499364254.43,44317,18.44,74256.8,1.79,0.33,0.17,0,*71
1499364255.63,44318,18.44,74264.3,1.79,0.21,0.05,0,*4E
1499364256.82,44319,18.44,74266.5,1.79,0.17,-0.07,0,*65
1499364257.99,44320,18.44,74258.5,1.79,0.05,-0.07,0,*5C
1499364259.21,44321,18.44,74260.5,1.79,0.33,0.21,0,*71
1499364260.43,44322,18.44,74266.8,1.77,0.21,0.09,0,*45
1499364261.63,44323,18.44,74264.8,1.77,0.05,-0.19,0,*6E
1499364262.82,44324,18.44,74270.3,1.75,-0.19,-0.45,0,*72
1499364264.04,44325,18.44,74266.8,1.77,-0.19,-0.37,0,*74
1499364265.22,44326,18.44,74260.0,1.75,-0.07,-0.19,0,*46
1499364266.42,44327,18.44,74266.0,1.75,0.21,-0.11,0,*56
1499364267.63,44328,18.44,74264.0,1.75,-0.23,-0.53,0,*70
1499364268.84,44329,18.44,74256.0,1.73,-0.41,-0.69,0,*7A
1499364270.04,44330,18.44,74248.5,1.73,-0.19,-0.33,0,*70
1499364271.27,44331,18.44,74250.0,1.73,-0.23,-0.57,0,*7A
1499364272.47,44332,18.44,74250.3,1.73,-0.41,-0.61,0,*78
1499364273.71,44333,18.44,74254.3,1.73,-0.85,-0.73,0,*72
1499364274.95,44334,18.44,74258.5,1.75,-1.05,-1.05,0,*7A
1499364276.14,44335,18.44,74256.8,1.75,-1.59,-1.29,0,*7C
1499364277.36,44336,18.44,74260.8,1.75,-2.19,-1.47,0,*70
1499364278.54,44337,18.44,74260.3,1.75,-1.59,-0.57,0,*46
1499364279.74,44338,18.44,74262.8,1.75,-0.65,0.25,0,*5F
1499364280.93,44339,18.44,74254.0,1.75,0.13,0.43,0,*72
1499364282.14,44340,18.44,74258.5,1.75,0.33,0.63,0,*7C
1499364283.39,44341,18.44,74264.5,1.77,0.67,0.91,0,*73
1499364284.61,44342,18.44,74260.5,1.77,0.83,1.01,0,*42
1499364285.84,44343,18.44,74266.0,1.77,0.91,1.01,0,*40
1499364287.08,44344,18.44,74276.0,1.77,1.01,1.09,0,*77
1499364288.33,44345,18.44,74264.3,1.77,0.83,0.83,0,*7E
1499364289.58,44346,18.44,74268.8,1.77,0.79,0.79,0,*7D
1499364290.81,44347,18.44,74266.3,1.75,0.87,0.91,0,*79
1499364292.05,44348,18.44,74270.0,1.77,0.95,0.95,0,*73
1499364293.25,44349,18.44,74266.0,1.79,1.01,0.95,0,*40
1499364294.43,44350,18.44,74266.8,1.79,1.01,1.01,0,*74
1499364295.61,44351,18.44,74270.8,1.79,1.05,1.05,0,*75
1499364296.82,44352,18.44,74264.3,1.79,1.05,1.09,0,*7A
1499364298.05,44353,18.44,74266.5,1.79,1.17,1.17,0,*77
1499364299.29,44354,18.44,74266.8,1.79,1.09,1.09,0,*70
1499364300.53,44355,18.44,74272.5,1.79,1.17,1.09,0,*7E
1499364301.74,44356,18.44,74274.3,1.79,1.09,1.05,0,*7E
1499364303.0,44357,18.44,74272.5,1.81,1.09,1.09,0,*74
1499364304.2,44358,18.44,74270.0,1.81,1.05,1.01,0,*7F
1499364305.42,44359,18.44,74274.3,1.81,1.09,0.97,0,*4C
1499364306.63,44360,18.44,74278.3,1.79,1.01,0.83,0,*4C
1499364307.86,44361,18.44,74274.5,1.81,0.95,0.95,0,*71
1499364309.1,44362,18.44,74274.0,1.81,0.95,0.87,0,*71
1499364310.32,44363,18.44,74276.3,1.81,0.97,0.87,0,*72
1499364311.57,44364,18.44,74274.3,1.81,0.83,0.59,0,*73
1499364312.8,44365,18.44,74278.0,1.81,0.51,0.13,0,*73
1499364314.0,44366,18.44,74274.0,1.83,0.13,-0.33,0,*5B
1499364315.21,44367,18.44,74270.8,1.83,-0.23,-0.33,0,*74
1499364316.43,44368,18.44,74264.8,1.81,-0.27,-0.45,0,*7C
1499364317.64,44369,18.44,74258.0,1.81,-0.37,-0.53,0,*7B
1499364318.84,44370,18.44,74260.0,1.81,-0.37,-0.49,0,*78
1499364320.05,44371,18.44,74264.3,1.81,-0.37,-0.73,0,*70
1499364321.28,44372,18.44,74268.0,1.81,-0.53,-1.13,0,*46
1499364322.51,44373,18.44,74274.8,1.81,-1.51,-1.83,0,*7D
1499364323.76,44374,18.44,74270.3,1.81,-2.63,-2.23,0,*71
1499364324.99,44375,18.44,74268.0,1.81,-2.75,-1.25,0,*72
1499364326.2,44376,18.44,74266.8,1.79,-2.67,-0.81,0,*4A
1499364327.4,44377,18.44,74260.5,1.81,-1.75,0.09,0,*51
1499364328.62,44378,18.44,74260.3,1.81,-0.49,0.25,0,*5E
1499364329.81,44379,18.44,74262.8,1.79,-0.29,0.17,0,*5F
1499364331.01,44380,18.44,74258.8,1.79,-0.03,0.17,0,*61
1499364332.25,44381,18.44,74242.8,1.81,0.25,0.29,0,*73
1499364333.48,44382,18.44,74244.0,1.81,0.37,0.37,0,*7C
1499364334.71,44383,18.44,74252.3,1.81,0.37,0.41,0,*7C
1499364335.93,44384,18.44,74258.3,1.79,0.21,0.33,0,*7E
1499364337.16,44385,18.44,74266.5,1.81,0.37,0.41,0,*7A
1499364338.35,44386,18.44,74268.5,1.79,0.43,0.55,0,*78
1499364339.59,44387,18.44,74270.8,1.81,0.71,0.83,0,*74
1499364340.82,44388,18.44,74270.3,1.83,0.91,0.91,0,*74
1499364342.05,44389,18.44,74268.3,1.83,1.09,1.09,0,*75
1499364343.29,44390,18.44,74268.3,1.83,1.13,1.13,0,*7D
1499364344.52,44391,18.44,74264.3,1.83,1.17,1.13,0,*78
1499364345.75,44392,18.44,74258.0,1.85,1.13,1.01,0,*7A
1499364346.96,44393,18.44,74248.8,1.83,1.13,1.01,0,*7D
1499364348.16,44394,18.44,74274.0,1.83,0.97,0.79,0,*79
1499364349.4,44395,18.44,74290.0,1.85,0.91,0.67,0,*77
1499364350.61,44396,18.44,74268.5,1.85,0.43,0.33,0,*7A
1499364351.82,44397,18.44,74246.8,1.83,0.41,0.33,0,*7F
1499364353.05,44398,18.44,74250.0,1.85,0.67,0.55,0,*72
1499364354.29,44399,18.44,74246.3,1.85,0.67,0.55,0,*73
1499364355.47,44400,18.44,74244.8,1.83,0.67,0.43,0,*75
1499364356.71,44401,18.44,74250.5,1.85,0.67,0.51,0,*71
1499364357.93,44402,18.44,74258.0,1.83,0.55,0.33,0,*71
1499364359.14,44403,18.44,74262.8,1.85,0.51,0.05,0,*47
1499364360.36,44404,18.44,74264.0,1.85,0.25,-0.33,0,*5B
1499364361.57,44405,18.44,74262.3,1.85,0.01,-0.93,0,*66
1499364362.79,44406,18.44,74272.3,1.83,-0.11,-1.47,0,*47
1499364363.99,44407,18.44,74270.5,1.83,-0.61,-2.11,0,*41
1499364365.23,44408,18.44,74266.8,1.83,-1.35,-2.59,0,*72
1499364366.44,44409,18.44,74274.5,1.83,-1.55,-2.55,0,*79
1499364367.69,44410,18.44,74274.5,1.85,-1.71,-2.71,0,*77
1499364368.93,44411,18.44,74270.5,1.83,-2.03,-2.71,0,*76
1499364370.18,44412,18.44,74276.0,1.83,-2.03,-2.55,0,*73
1499364371.39,44413,18.44,74276.3,1.83,-2.07,-2.87,0,*79
1499364372.6,44414,18.44,74272.5,1.83,-2.67,-3.35,0,*70
1499364373.83,44415,18.44,74268.8,1.83,-2.67,-3.71,0,*71
1499364375.04,44416,18.44,74268.5,1.83,-2.87,-3.43,0,*7D
1499364376.26,44417,18.44,74268.5,1.83,-3.11,-2.71,0,*72
1499364377.5,44418,18.44,74270.0,1.83,-2.71,-1.91,0,*77
1499364378.74,44419,18.44,74270.3,1.83,-2.03,-1.47,0,*78
1499364379.98,44420,18.44,74272.5,1.81,-1.87,-1.63,0,*79
1499364381.2,44421,18.44,74274.0,1.79,-1.39,-1.17,0,*79
1499364382.38,44422,18.44,74268.0,1.79,-0.69,-0.53,0,*7F
1499364383.59,44423,18.44,74260.3,1.81,-0.15,-0.33,0,*74
1499364384.76,44424,18.44,74260.3,1.79,0.05,-0.29,0,*63
1499364385.98,44425,18.44,74260.3,1.81,0.25,-0.65,0,*5F
1499364387.16,44426,18.44,74264.0,1.79,-0.37,-1.29,0,*4C
1499364388.35,44427,18.44,74270.5,1.79,-0.57,-1.55,0,*40
1499364389.59,44428,18.44,74268.0,1.79,-0.93,-2.03,0,*47
1499364390.83,44429,18.44,74268.8,1.79,-1.35,-2.75,0,*7A
1499364392.09,44430,18.44,74260.5,1.81,-1.95,-3.51,0,*78
1499364393.34,44431,18.44,74266.5,1.79,-2.55,-5.07,0,*74
1499364394.56,44432,18.44,74260.3,1.79,-3.83,-6.93,0,*73
1499364395.81,44433,18.44,74260.8,1.79,-5.07,-9.37,0,*79
1499364397.09,44434,18.44,74276.5,1.77,-7.73,-11.85,0,*41
1499364398.36,44435,18.44,74272.3,1.77,-10.41,-15.29,0,*75
1499364399.6,44436,18.44,74274.0,1.77,-15.99,-17.79,0,*71
1499364400.83,44437,18.44,74264.8,1.75,-17.63,-16.59,0,*76
1499364402.03,44438,18.44,74268.8,1.75,-16.03,-13.15,0,*73
1499364403.23,44439,18.44,74268.0,1.75,-14.69,-10.05,0,*7E
1499364404.5,44440,18.44,74270.3,1.73,-10.79,-7.73,0,*44
1499364405.74,44441,18.44,74262.8,1.71,-9.31,-4.89,0,*75
1499364406.96,44442,18.44,74262.0,1.71,-6.51,-2.87,0,*77
1499364408.16,44443,18.44,74256.8,1.69,-3.83,-1.75,0,*7B
1499364409.37,44444,18.44,74254.3,1.69,-2.51,-1.21,0,*73
1499364410.58,44445,18.44,74254.3,1.69,-1.75,-1.01,0,*75
1499364411.81,44446,18.44,74252.0,1.71,-1.25,-0.97,0,*44
1499364413.08,44447,18.44,74250.5,1.71,-1.13,-1.43,0,*78
1499364414.3,44448,18.44,74252.0,1.71,-1.21,-1.71,0,*77
1499364415.55,44449,18.44,74250.3,1.71,-1.21,-1.99,0,*70
1499364416.79,44450,18.44,74260.3,1.71,-1.51,-2.71,0,*7A
1499364418.02,44451,18.44,74262.0,1.71,-1.95,-3.75,0,*76
1499364419.27,44452,18.44,74260.3,1.71,-3.63,-6.47,0,*7A
1499364420.49,44453,18.44,74268.0,1.71,-6.89,-10.27,0,*4B
1499364421.74,44454,18.44,74256.5,1.69,-12.53,-11.81,0,*7A
1499364422.97,44455,18.44,74256.5,1.69,-13.37,-10.01,0,*71
1499364424.19,44456,18.44,74240.8,1.69,-12.35,-8.45,0,*48
1499364425.41,44457,18.44,74236.0,1.69,-8.21,-7.43,0,*7E
1499364426.64,44458,18.44,74240.5,1.67,-7.61,-8.67,0,*7D
1499364427.89,44459,18.44,74240.8,1.67,-10.41,-10.01,0,*71
1499364429.14,44460,18.44,74242.0,1.67,-11.29,-9.19,0,*45
1499364430.36,44461,18.44,74244.5,1.69,-9.15,-8.37,0,*71
1499364431.63,44462,18.44,74250.8,1.67,-7.05,-7.61,0,*7F
1499364432.86,44463,18.44,74250.3,1.67,-6.39,-7.95,0,*7B
1499364434.1,44464,18.44,74250.8,1.67,-6.43,-7.43,0,*7A
1499364435.31,44465,18.44,74248.3,1.67,-6.55,-6.43,0,*7D
1499364436.55,44466,18.44,74258.5,1.69,-7.01,-6.23,0,*76
1499364437.78,44467,18.44,74260.0,1.65,-7.01,-5.31,0,*7B
1499364439.0,44468,18.44,74254.3,1.59,-5.39,-3.27,0,*73
1499364440.22,44469,18.44,74260.3,1.59,-3.87,-2.19,0,*7D
1499364441.46,44470,18.44,74264.8,1.59,-2.39,-1.47,0,*79
1499364442.7,44471,18.44,74262.3,1.59,-1.25,-1.01,0,*74
1499364443.94,44472,18.44,74268.5,1.59,-0.89,-1.21,0,*42
1499364445.15,44473,18.44,74274.5,1.65,-1.25,-1.91,0,*70
1499364446.37,44474,18.44,74266.5,1.61,-2.47,-3.11,0,*7E
1499364447.6,44475,18.44,74274.8,1.61,-3.71,-3.55,0,*7B
1499364448.82,44476,18.44,74276.0,1.61,-4.25,-3.59,0,*72
1499364450.01,44477,18.44,74264.8,1.65,-4.21,-3.19,0,*77
1499364451.2,44478,18.44,74266.3,1.61,-3.35,-2.35,0,*71
1499364452.41,44479,18.44,74256.8,1.65,-2.39,-2.03,0,*7C
1499364453.65,44480,18.44,74262.3,1.65,-1.87,-1.35,0,*7A
1499364454.82,44481,18.44,74260.5,1.65,-1.25,-0.81,0,*4D
1499364456.01,44482,18.44,74262.8,1.65,-0.81,-0.77,0,*78
1499364457.18,44483,18.44,74266.3,1.65,-0.65,-0.81,0,*7A
1499364458.38,44484,18.44,74274.5,1.69,-0.61,-0.89,0,*7D
1499364459.6,44485,18.44,74278.8,1.67,-0.77,-1.09,0,*4C
1499364460.84,44486,18.44,74282.8,1.67,-1.13,-1.55,0,*75
1499364462.02,44487,18.44,74280.3,1.69,-1.63,-1.33,0,*7D
1499364463.25,44488,18.44,74270.8,1.67,-1.35,-0.77,0,*4E
1499364464.43,44489,18.44,74256.3,1.69,-0.65,-0.61,0,*72
1499364465.6,44490,18.44,74250.3,1.69,-0.29,-0.53,0,*73
1499364466.81,44491,18.44,74254.8,1.67,-0.37,-0.49,0,*78
1499364468.0,44492,18.44,74258.8,1.67,-0.03,-0.29,0,*4A
1499364469.2,44493,18.44,74270.5,1.67,-0.15,-0.61,0,*70
1499364470.38,44494,18.44,74260.5,1.65,-0.65,-0.77,0,*75
1499364471.59,44495,18.44,74264.5,1.67,-0.81,-0.49,0,*71
1499364472.79,44496,18.44,74268.8,1.67,-0.61,-0.41,0,*74
1499364474.0,44497,18.44,74272.3,1.67,-0.37,-0.41,0,*76
1499364475.2,44498,18.44,74276.8,1.67,-0.37,-0.61,0,*7B
1499364476.42,44499,18.44,74266.3,1.67,-0.53,-0.89,0,*7E
1499364477.6,44500,18.44,74268.8,1.69,-0.73,-0.77,0,*72
1499364478.85,44501,18.44,74264.3,1.67,-0.89,-0.89,0,*79
1499364480.09,44502,18.44,74266.0,1.67,-1.01,-0.81,0,*43
1499364481.31,44503,18.44,74266.3,1.67,-0.93,-0.81,0,*78
1499364482.54,44504,18.44,74264.0,1.67,-0.89,-0.69,0,*72
1499364483.73,44505,18.44,74272.8,1.67,-0.61,-0.65,0,*79
1499364484.91,44506,18.44,74272.8,1.69,-0.57,-0.77,0,*72
1499364486.11,44507,18.44,74278.8,1.69,-0.57,-0.97,0,*7D
1499364487.31,44508,18.44,74278.3,1.67,-0.61,-1.17,0,*40
1499364488.5,44509,18.44,74276.3,1.69,-0.73,-1.21,0,*49
1499364489.68,44510,18.44,74276.8,1.69,-0.77,-1.25,0,*41
1499364490.86,44511,18.44,74270.5,1.69,-0.77,-1.25,0,*40
1499364492.06,44512,18.44,74272.0,1.69,-0.77,-1.13,0,*46
1499364493.25,44513,18.44,74274.0,1.69,-0.73,-1.21,0,*42
1499364494.46,44514,18.44,74262.3,1.69,-0.85,-1.21,0,*4C
1499364495.69,44515,18.44,74256.0,1.69,-0.89,-1.09,0,*4B
1499364496.87,44516,18.44,74260.3,1.69,-0.57,-0.61,0,*74
1499364498.09,44517,18.44,74262.3,1.69,-0.23,-0.27,0,*74
1499364499.32,44518,18.44,74264.0,1.69,-0.23,-0.27,0,*7B
1499364500.52,44519,18.44,74258.8,1.69,-0.23,-0.37,0,*7B
1499364501.7,44520,18.44,74264.8,1.69,-0.15,-0.45,0,*71
1499364502.9,44521,18.44,74264.5,1.69,0.13,-0.37,0,*5E
1499364504.11,44522,18.44,74284.5,1.69,0.13,-0.85,0,*54
1499364505.31,44523,18.44,74270.8,1.69,-0.49,-1.95,0,*47
1499364506.53,44524,18.44,74272.0,1.69,-1.21,-2.75,0,*72
1499364507.72,44525,18.44,74270.5,1.69,-1.71,-2.99,0,*74
1499364508.97,44526,18.44,74278.0,1.71,-1.99,-2.95,0,*74
1499364510.19,44527,18.44,74276.3,1.71,-2.35,-2.95,0,*70
1499364511.46,44528,18.44,74278.0,1.71,-2.63,-2.71,0,*76
1499364512.69,44529,18.44,74274.0,1.69,-2.51,-1.95,0,*76
1499364513.9,44530,18.44,74274.5,1.69,-1.99,-1.33,0,*75
1499364515.14,44531,18.44,74282.0,1.69,-1.47,-1.01,0,*76
1499364516.33,44532,18.44,74276.5,1.69,-1.25,-1.21,0,*73
1499364517.57,44533,18.44,74272.8,1.69,-1.43,-1.87,0,*7E
1499364518.79,44534,18.44,74274.3,1.69,-1.43,-2.23,0,*74
1499364520.03,44535,18.44,74274.5,1.67,-1.29,-1.99,0,*75
1499364521.27,44536,18.44,74278.8,1.69,-1.13,-1.95,0,*7D
1499364522.51,44537,18.44,74274.3,1.67,-1.17,-1.99,0,*7A
1499364523.72,44538,18.44,74278.5,1.69,-1.35,-2.27,0,*7D